Main page
METAR-TAF:

METAR-TAF

Airports :

Jammu, India

Jammu Airport

latitude: 32-41-21N, longitude: 74-50-15E, elevation: 314 m

Current weather observation

The report was made 2 hours and 34 minutes ago, at 11:30 UTC
Wind 3 kt from the South/Southwest
Temperature 31°C
Humidity 36%
Pressure 1005 hPa
Visibility: 6000 m
Clear sky

METAR: VIJU 211130Z 21003KT 6000 SKC 31/14 Q1005 NOSIG

Time: 19:34 (14:04 UTC)


TAF: missing

Weather observations and forecasts of more than 4000 airports (METAR and TAF reports).

The available stations are represented by yellow and red dots on the map.

Hover mouse over dot to see the name of the station.

Then click to see weather observations and forecasts.

To change the map : click on the green buttons with a black cross to zoom in, on the green button with a dash to zoom out, or on the green arrows for adjacent maps.


METAR-TAF: